COSMOS 2485 (747)

Last updated on Wed Jun 24 2026 00:03:29 GMT+0000 (Coordinated Universal Time)

1 39155U 13019A 26173.07185831 -.00000057 00000+0 00000+0 0 9990 2 39155 65.4224 73.4404 0022976 233.5948 126.2265 2.13103126102387
UTC large
Height (km)
Speed (km/s)
/
Latitude / Longitude
Inclination (degrees)
Orbital Period (minutes)
Azimuth
Elevation
Range (km)
Doppler Factor

Next 0 passes for location: London (51.5072 / 0.1276)

No passes found over London.
COSMOS 2485 (747)